| time (UTC) | temp F | wind direction | speed MPH | gust MPH | rain 1hr in | rain 24hr in | rain mn in | humidity % | barometer mb |
| 20260904162308 | 83 | 334 | 0.0 | 1.0 | 0.00 | 0.04 | 0.02 | 79 | 1015.3 |
| 20260904161806 | 83 | 355 | 0.0 | 2.0 | 0.00 | 0.05 | 0.02 | 79 | 1015.4 |
| 20260904161302 | 83 | 34 | 0.0 | 2.0 | 0.00 | 0.05 | 0.02 | 79 | 1015.4 |
| 20260904160817 | 83 | 355 | 0.0 | 1.0 | 0.00 | 0.05 | 0.02 | 80 | 1015.4 |
| 20260904160312 | 82 | 355 | 0.0 | 3.0 | 0.00 | 0.05 | 0.02 | 81 | 1015.4 |
| 20260904155828 | 82 | 340 | 0.0 | 3.0 | 0.00 | 0.05 | 0.02 | 82 | 1015.4 |
| 20260904155306 | 82 | 28 | 0.0 | 3.0 | 0.00 | 0.05 | 0.02 | 83 | 1015.5 |
| 20260904154800 | 82 | 355 | 0.0 | 3.0 | 0.00 | 0.05 | 0.02 | 84 | 1015.4 |
| 20260904154313 | 81 | 40 | 0.0 | 2.0 | 0.00 | 0.05 | 0.02 | 85 | 1015.4 |
| 20260904153803 | 81 | 33 | 0.0 | 3.0 | 0.00 | 0.05 | 0.02 | 85 | 1015.3 |
| 20260904153301 | 81 | 111 | 0.0 | 3.0 | 0.00 | 0.05 | 0.02 | 85 | 1015.2 |
| 20260904152816 | 81 | 44 | 0.0 | 2.0 | 0.00 | 0.05 | 0.02 | 85 | 1015.2 |
| 20260904152314 | 81 | 36 | 0.0 | 2.0 | 0.01 | 0.05 | 0.02 | 87 | 1015.2 |
| 20260904151811 | 81 | 18 | 0.0 | 2.0 | 0.01 | 0.05 | 0.02 | 88 | 1015.2 |
| 20260904151308 | 80 | 18 | 0.0 | 2.0 | 0.01 | 0.05 | 0.02 | 88 | 1015.2 |
| 20260904150802 | 80 | 22 | 0.0 | 1.0 | 0.01 | 0.05 | 0.02 | 89 | 1015.3 |
| 20260904150316 | 80 | 13 | 0.0 | 1.0 | 0.01 | 0.05 | 0.02 | 90 | 1015.3 |
| 20260904145813 | 80 | 28 | 0.0 | 2.0 | 0.01 | 0.05 | 0.02 | 90 | 1015.3 |
| 20260904145328 | 80 | 28 | 0.0 | 2.0 | 0.01 | 0.05 | 0.02 | 91 | 1015.3 |
| 20260904144821 | 80 | 205 | 0.0 | 0.0 | 0.01 | 0.05 | 0.02 | 91 | 1015.2 |
| 20260904144338 | 79 | 205 | 0.0 | 0.0 | 0.01 | 0.05 | 0.02 | 91 | 1015.2 |
| 20260904143812 | 79 | 205 | 0.0 | 0.0 | 0.01 | 0.05 | 0.02 | 91 | 1015.1 |
| 20260904143309 | 79 | 205 | 0.0 | 0.0 | 0.01 | 0.05 | 0.02 | 91 | 1015.1 |
| 20260904142805 | 79 | 205 | 0.0 | 0.0 | 0.01 | 0.05 | 0.02 | 91 | 1015.1 |
| 20260904142300 | 78 | 205 | 0.0 | 0.0 | 0.00 | 0.04 | 0.01 | 91 | 1015.1 |
| 20260904141816 | 78 | 205 | 0.0 | 0.0 | 0.00 | 0.04 | 0.01 | 90 | 1015.1 |
| 20260904141332 | 78 | 205 | 0.0 | 0.0 | 0.00 | 0.04 | 0.01 | 90 | 1015.0 |
| 20260904140827 | 78 | 205 | 0.0 | 0.0 | 0.00 | 0.04 | 0.01 | 90 | 1015.0 |
| 20260904140343 | 78 | 205 | 0.0 | 1.0 | 0.00 | 0.04 | 0.01 | 91 | 1015.1 |
| 20260904135837 | 78 | 254 | 0.0 | 0.0 | 0.00 | 0.04 | 0.01 | 92 | 1015.1 |
| 20260904134811 | 78 | 254 | 0.0 | 0.0 | 0.00 | 0.04 | 0.01 | 92 | 1014.8 |
| 20260904134307 | 77 | 254 | 0.0 | 0.0 | 0.00 | 0.04 | 0.01 | 92 | 1014.7 |
| 20260904133824 | 77 | 254 | 0.0 | 0.0 | 0.00 | 0.04 | 0.01 | 92 | 1014.5 |
| 20260904133320 | 76 | 254 | 0.0 | 0.0 | 0.00 | 0.04 | 0.01 | 91 | 1014.4 |
| 20260904132818 | 76 | 254 | 0.0 | 0.0 | 0.00 | 0.04 | 0.01 | 91 | 1014.3 |
| 20260904132330 | 76 | 254 | 0.0 | 0.0 | 0.00 | 0.04 | 0.01 | 91 | 1014.3 |
| 20260904131804 | 75 | 254 | 0.0 | 0.0 | 0.00 | 0.04 | 0.01 | 90 | 1014.4 |
| 20260904131301 | 75 | 254 | 0.0 | 0.0 | 0.00 | 0.04 | 0.01 | 90 | 1014.4 |
| 20260904130819 | 75 | 254 | 0.0 | 0.0 | 0.00 | 0.04 | 0.01 | 90 | 1014.5 |
| 20260904130316 | 75 | 254 | 0.0 | 0.0 | 0.00 | 0.04 | 0.01 | 90 | 1014.6 |
| 20260904125814 | 74 | 254 | 0.0 | 0.0 | 0.00 | 0.04 | 0.01 | 89 | 1014.5 |
| 20260904125310 | 74 | 254 | 0.0 | 0.0 | 0.01 | 0.04 | 0.01 | 89 | 1014.4 |
| 20260904124826 | 74 | 254 | 0.0 | 0.0 | 0.01 | 0.04 | 0.01 | 89 | 1014.4 |
| 20260904124301 | 74 | 254 | 0.0 | 0.0 | 0.01 | 0.04 | 0.01 | 89 | 1014.5 |
| 20260904123816 | 74 | 254 | 0.0 | 2.0 | 0.01 | 0.04 | 0.01 | 89 | 1014.4 |
| 20260904123331 | 75 | 227 | 0.0 | 2.0 | 0.01 | 0.04 | 0.01 | 90 | 1014.4 |
| 20260904122807 | 74 | 340 | 0.0 | 3.0 | 0.01 | 0.04 | 0.01 | 90 | 1014.4 |
| 20260904122325 | 74 | 118 | 1.0 | 7.0 | 0.01 | 0.04 | 0.01 | 89 | 1014.4 |
| 20260904121820 | 74 | 349 | 2.0 | 7.0 | 0.01 | 0.04 | 0.01 | 89 | 1014.4 |
| 20260904121316 | 73 | 321 | 2.0 | 7.0 | 0.01 | 0.04 | 0.01 | 89 | 1014.3 |
| 20260904120834 | 73 | 332 | 3.0 | 6.0 | 0.01 | 0.04 | 0.01 | 88 | 1014.3 |
| 20260904120308 | 73 | 308 | 2.0 | 5.0 | 0.01 | 0.04 | 0.01 | 88 | 1014.4 |
| 20260904115803 | 73 | 325 | 3.0 | 6.0 | 0.01 | 0.04 | 0.01 | 88 | 1014.4 |
| 20260904115321 | 74 | 320 | 4.0 | 6.0 | 0.00 | 0.03 | 0.00 | 87 | 1014.3 |
| 20260904114817 | 74 | 113 | 0.0 | 2.0 | 0.00 | 0.03 | 0.00 | 87 | 1014.5 |
| 20260904114313 | 74 | 113 | 0.0 | 2.0 | 0.00 | 0.03 | 0.00 | 86 | 1014.6 |
| 20260904113832 | 74 | 112 | 0.0 | 4.0 | 0.00 | 0.03 | 0.00 | 86 | 1014.5 |
| 20260904113306 | 74 | 167 | 1.0 | 4.0 | 0.00 | 0.03 | 0.00 | 85 | 1014.6 |
| 20260904112802 | 74 | 46 | 1.0 | 8.0 | 0.00 | 0.03 | 0.00 | 84 | 1014.4 |
| 20260904112315 | 75 | 222 | 2.0 | 13.0 | 0.00 | 0.03 | 0.00 | 83 | 1014.0 |
| 20260904111812 | 75 | 333 | 4.0 | 13.0 | 0.00 | 0.03 | 0.00 | 82 | 1013.6 |
| 20260904111309 | 77 | 221 | 5.0 | 12.0 | 0.00 | 0.03 | 0.00 | 79 | 1013.7 |
| 20260904110807 | 79 | 264 | 2.0 | 8.0 | 0.00 | 0.03 | 0.00 | 79 | 1013.8 |
| 20260904110304 | 81 | 318 | 3.0 | 8.0 | 0.00 | 0.03 | 0.00 | 77 | 1013.9 |
| 20260904105820 | 81 | 313 | 2.0 | 5.0 | 0.00 | 0.03 | 0.00 | 77 | 1013.6 |
| 20260904105308 | 81 | 72 | 0.0 | 4.0 | 0.00 | 0.03 | 0.00 | 76 | 1013.7 |
| 20260904104803 | 81 | 124 | 0.0 | 5.0 | 0.00 | 0.03 | 0.00 | 76 | 1013.5 |
| 20260904104320 | 82 | 260 | 2.0 | 6.0 | 0.00 | 0.03 | 0.00 | 77 | 1013.5 |
| 20260904103807 | 82 | 248 | 1.0 | 4.0 | 0.00 | 0.03 | 0.00 | 78 | 1013.4 |
| 20260904103304 | 82 | 229 | 1.0 | 4.0 | 0.00 | 0.03 | 0.00 | 79 | 1013.2 |
| 20260904102855 | 82 | 173 | 0.0 | 0.0 | 0.00 | 0.03 | 0.00 | 81 | 1013.1 |
| 20260904102307 | 82 | 173 | 0.0 | 0.0 | 0.00 | 0.03 | 0.00 | 81 | 1013.0 |
| 20260904101804 | 82 | 173 | 0.0 | 0.0 | 0.00 | 0.04 | 0.00 | 81 | 1013.0 |
| 20260904101314 | 82 | 173 | 0.0 | 2.0 | 0.00 | 0.04 | 0.00 | 81 | 1012.9 |
| 20260904100810 | 82 | 173 | 0.0 | 2.0 | 0.00 | 0.04 | 0.00 | 81 | 1013.0 |
| 20260904100328 | 82 | 173 | 0.0 | 0.0 | 0.00 | 0.04 | 0.00 | 80 | 1012.9 |
| 20260904095803 | 82 | 173 | 0.0 | 0.0 | 0.00 | 0.04 | 0.00 | 80 | 1012.9 |
| 20260904095319 | 82 | 173 | 0.0 | 0.0 | 0.00 | 0.04 | 0.00 | 80 | 1012.9 |
| 20260904094815 | 82 | 173 | 0.0 | 1.0 | 0.00 | 0.04 | 0.00 | 80 | 1012.8 |
| 20260904094310 | 82 | 173 | 0.0 | 2.0 | 0.00 | 0.04 | 0.00 | 80 | 1012.7 |
| 20260904093806 | 82 | 173 | 0.0 | 2.0 | 0.00 | 0.04 | 0.00 | 80 | 1012.7 |
| 20260904093325 | 82 | 173 | 0.0 | 2.0 | 0.00 | 0.04 | 0.00 | 80 | 1012.7 |
| 20260904092841 | 82 | 172 | 0.0 | 2.0 | 0.00 | 0.04 | 0.00 | 80 | 1012.8 |
| 20260904092315 | 82 | 172 | 1.0 | 2.0 | 0.00 | 0.04 | 0.00 | 80 | 1012.8 |
| 20260904091830 | 82 | 172 | 0.0 | 2.0 | 0.00 | 0.04 | 0.00 | 80 | 1012.8 |
| 20260904091305 | 82 | 172 | 1.0 | 2.0 | 0.00 | 0.04 | 0.00 | 80 | 1012.9 |
| 20260904090312 | 81 | 171 | 0.0 | 0.0 | 0.00 | 0.04 | 0.00 | 81 | 1012.9 |
| 20260904085807 | 81 | 171 | 0.0 | 0.0 | 0.00 | 0.04 | 0.00 | 81 | 1013.0 |
| 20260904085323 | 81 | 171 | 0.0 | 0.0 | 0.00 | 0.04 | 0.00 | 80 | 1013.0 |
| 20260904084813 | 82 | 171 | 0.0 | 0.0 | 0.00 | 0.04 | 0.00 | 80 | 1013.0 |
| 20260904084329 | 82 | 171 | 0.0 | 0.0 | 0.00 | 0.04 | 0.00 | 80 | 1013.1 |
| 20260904083824 | 81 | 171 | 0.0 | 0.0 | 0.00 | 0.04 | 0.00 | 80 | 1013.0 |
| 20260904083318 | 81 | 172 | 0.0 | 0.0 | 0.00 | 0.04 | 0.00 | 80 | 1013.0 |
| 20260904082834 | 81 | 171 | 0.0 | 0.0 | 0.00 | 0.04 | 0.00 | 80 | 1013.0 |
| 20260904082311 | 81 | 171 | 0.0 | 0.0 | 0.00 | 0.04 | 0.00 | 81 | 1013.1 |
| 20260904081807 | 81 | 172 | 0.0 | 0.0 | 0.00 | 0.04 | 0.00 | 81 | 1013.1 |
| 20260904081305 | 81 | 171 | 0.0 | 0.0 | 0.00 | 0.04 | 0.00 | 81 | 1013.1 |
| 20260904080821 | 81 | 172 | 0.0 | 0.0 | 0.00 | 0.04 | 0.00 | 81 | 1013.2 |
| 20260904080338 | 81 | 171 | 0.0 | 0.0 | 0.00 | 0.04 | 0.00 | 81 | 1013.2 |
| 20260904075813 | 81 | 171 | 0.0 | 0.0 | 0.00 | 0.04 | 0.00 | 81 | 1013.2 |
| 20260904075309 | 81 | 171 | 0.0 | 0.0 | 0.00 | 0.04 | 0.00 | 81 | 1013.2 |
| 20260904074804 | 81 | 171 | 0.0 | 0.0 | 0.00 | 0.04 | 0.00 | 80 | 1013.2 |
| 20260904074322 | 81 | 171 | 0.0 | 0.0 | 0.00 | 0.04 | 0.00 | 80 | 1013.2 |
| 20260904073814 | 81 | 171 | 0.0 | 0.0 | 0.00 | 0.04 | 0.00 | 80 | 1013.0 |
| 20260904073331 | 81 | 171 | 0.0 | 0.0 | 0.00 | 0.04 | 0.00 | 80 | 1013.1 |
| 20260904072805 | 81 | 171 | 0.0 | 0.0 | 0.00 | 0.04 | 0.00 | 80 | 1013.1 |
| 20260904072320 | 81 | 171 | 0.0 | 0.0 | 0.00 | 0.04 | 0.00 | 80 | 1013.1 |
| 20260904071835 | 81 | 171 | 0.0 | 0.0 | 0.00 | 0.04 | 0.04 | 80 | 1013.1 |
| 20260904071311 | 81 | 171 | 0.0 | 0.0 | 0.00 | 0.04 | 0.04 | 80 | 1013.1 |
| 20260904070806 | 81 | 171 | 0.0 | 0.0 | 0.00 | 0.04 | 0.04 | 80 | 1013.2 |
| 20260904070323 | 81 | 172 | 0.0 | 0.0 | 0.00 | 0.04 | 0.04 | 80 | 1013.2 |
| 20260904065818 | 81 | 171 | 0.0 | 0.0 | 0.00 | 0.04 | 0.04 | 81 | 1013.2 |
| 20260904065314 | 81 | 171 | 0.0 | 0.0 | 0.00 | 0.04 | 0.04 | 80 | 1013.3 |
| 20260904064825 | 81 | 171 | 0.0 | 0.0 | 0.00 | 0.04 | 0.04 | 80 | 1013.4 |
| 20260904064320 | 81 | 171 | 0.0 | 0.0 | 0.00 | 0.04 | 0.04 | 80 | 1013.4 |
| 20260904063817 | 81 | 171 | 0.0 | 0.0 | 0.00 | 0.04 | 0.04 | 80 | 1013.3 |
| 20260904063313 | 81 | 171 | 0.0 | 0.0 | 0.00 | 0.04 | 0.04 | 80 | 1013.3 |
| 20260904062832 | 81 | 171 | 0.0 | 0.0 | 0.00 | 0.04 | 0.04 | 80 | 1013.3 |
| 20260904062306 | 81 | 171 | 0.0 | 0.0 | 0.00 | 0.04 | 0.04 | 80 | 1013.4 |
| 20260904061803 | 81 | 171 | 0.0 | 0.0 | 0.00 | 0.04 | 0.04 | 80 | 1013.3 |
| 20260904061319 | 81 | 172 | 0.0 | 0.0 | 0.01 | 0.04 | 0.04 | 80 | 1013.4 |
| 20260904060817 | 81 | 171 | 0.0 | 0.0 | 0.01 | 0.04 | 0.04 | 80 | 1013.4 |
| 20260904060314 | 81 | 171 | 0.0 | 0.0 | 0.01 | 0.04 | 0.04 | 80 | 1013.4 |
| 20260904055810 | 81 | 171 | 0.0 | 0.0 | 0.01 | 0.04 | 0.04 | 79 | 1013.3 |
| 20260904055327 | 81 | 171 | 0.0 | 0.0 | 0.01 | 0.04 | 0.04 | 79 | 1013.4 |
| 20260904054823 | 81 | 171 | 0.0 | 0.0 | 0.01 | 0.04 | 0.04 | 79 | 1013.4 |
| 20260904054317 | 81 | 171 | 0.0 | 0.0 | 0.01 | 0.04 | 0.04 | 79 | 1013.4 |
| 20260904053815 | 81 | 171 | 0.0 | 0.0 | 0.01 | 0.04 | 0.04 | 79 | 1013.4 |
| 20260904053331 | 82 | 171 | 0.0 | 0.0 | 0.01 | 0.04 | 0.04 | 79 | 1013.3 |
| 20260904052807 | 82 | 171 | 0.0 | 0.0 | 0.01 | 0.04 | 0.04 | 79 | 1013.3 |
| 20260904052306 | 82 | 171 | 0.0 | 0.0 | 0.01 | 0.04 | 0.04 | 79 | 1013.2 |
| 20260904051819 | 82 | 171 | 0.0 | 0.0 | 0.01 | 0.04 | 0.04 | 79 | 1013.1 |
| 20260904051317 | 82 | 171 | 0.0 | 0.0 | 0.00 | 0.03 | 0.03 | 78 | 1013.1 |
| 20260904050813 | 82 | 171 | 0.0 | 0.0 | 0.00 | 0.03 | 0.03 | 78 | 1013.0 |
| 20260904050328 | 82 | 171 | 0.0 | 0.0 | 0.00 | 0.03 | 0.03 | 78 | 1013.0 |
| 20260904045819 | 82 | 171 | 0.0 | 0.0 | 0.00 | 0.03 | 0.03 | 78 | 1013.0 |
| 20260904045315 | 82 | 171 | 0.0 | 0.0 | 0.00 | 0.03 | 0.03 | 78 | 1012.9 |
| 20260904044831 | 82 | 171 | 0.0 | 0.0 | 0.00 | 0.03 | 0.03 | 78 | 1012.9 |
| 20260904044306 | 82 | 171 | 0.0 | 0.0 | 0.00 | 0.03 | 0.03 | 77 | 1012.9 |
| 20260904043801 | 82 | 171 | 0.0 | 0.0 | 0.00 | 0.03 | 0.03 | 77 | 1012.8 |
| 20260904043317 | 82 | 171 | 0.0 | 0.0 | 0.00 | 0.03 | 0.03 | 77 | 1012.8 |
| 20260904042312 | 83 | 171 | 0.0 | 0.0 | 0.00 | 0.03 | 0.03 | 77 | 1012.9 |
| 20260904041808 | 83 | 171 | 0.0 | 0.0 | 0.00 | 0.04 | 0.03 | 76 | 1012.9 |
| 20260904041305 | 83 | 171 | 0.0 | 0.0 | 0.00 | 0.04 | 0.03 | 76 | 1012.9 |
| 20260904040802 | 83 | 171 | 0.0 | 0.0 | 0.00 | 0.04 | 0.03 | 76 | 1012.9 |
| 20260904040319 | 83 | 172 | 0.0 | 0.0 | 0.00 | 0.04 | 0.03 | 76 | 1013.0 |
| 20260904035815 | 83 | 171 | 0.0 | 0.0 | 0.00 | 0.04 | 0.03 | 76 | 1012.9 |
| 20260904035329 | 83 | 171 | 0.0 | 0.0 | 0.00 | 0.04 | 0.03 | 75 | 1013.0 |
| 20260904034803 | 83 | 171 | 0.0 | 0.0 | 0.00 | 0.04 | 0.03 | 75 | 1013.1 |
| 20260904034320 | 84 | 171 | 0.0 | 0.0 | 0.00 | 0.04 | 0.03 | 75 | 1013.2 |
| 20260904033815 | 84 | 172 | 0.0 | 0.0 | 0.00 | 0.04 | 0.03 | 75 | 1013.3 |
| 20260904033310 | 84 | 171 | 0.0 | 0.0 | 0.00 | 0.04 | 0.03 | 74 | 1013.3 |
| 20260904032826 | 84 | 171 | 0.0 | 1.0 | 0.00 | 0.04 | 0.03 | 74 | 1013.3 |
| 20260904032321 | 84 | 171 | 0.0 | 2.0 | 0.00 | 0.04 | 0.03 | 74 | 1013.3 |
| 20260904031317 | 84 | 171 | 0.0 | 0.0 | 0.00 | 0.04 | 0.03 | 74 | 1013.4 |
| 20260904030813 | 84 | 171 | 0.0 | 1.0 | 0.00 | 0.04 | 0.03 | 74 | 1013.4 |
| 20260904030309 | 84 | 171 | 0.0 | 1.0 | 0.00 | 0.04 | 0.03 | 73 | 1013.5 |
| 20260904025804 | 84 | 172 | 0.0 | 2.0 | 0.00 | 0.04 | 0.03 | 73 | 1013.5 |
| 20260904025301 | 84 | 171 | 0.0 | 2.0 | 0.00 | 0.04 | 0.03 | 73 | 1013.6 |
| 20260904024818 | 84 | 171 | 0.0 | 1.0 | 0.00 | 0.04 | 0.03 | 73 | 1013.7 |
| 20260904024315 | 85 | 171 | 0.0 | 0.0 | 0.00 | 0.04 | 0.03 | 73 | 1013.6 |
| 20260904023311 | 85 | 172 | 0.0 | 3.0 | 0.00 | 0.04 | 0.03 | 72 | 1013.6 |
| 20260904022806 | 85 | 171 | 1.0 | 3.0 | 0.00 | 0.04 | 0.03 | 72 | 1013.7 |
| 20260904022305 | 85 | 171 | 0.0 | 0.0 | 0.00 | 0.04 | 0.03 | 72 | 1013.7 |
| 20260904021817 | 85 | 172 | 0.0 | 0.0 | 0.00 | 0.04 | 0.03 | 72 | 1013.7 |
| 20260904021314 | 85 | 171 | 0.0 | 2.0 | 0.00 | 0.04 | 0.03 | 72 | 1013.7 |
| 20260904020811 | 85 | 171 | 0.0 | 2.0 | 0.00 | 0.04 | 0.03 | 72 | 1013.6 |
| 20260904020309 | 85 | 172 | 0.0 | 2.0 | 0.00 | 0.04 | 0.03 | 71 | 1013.6 |
| 20260904015805 | 85 | 171 | 0.0 | 2.0 | 0.00 | 0.04 | 0.03 | 71 | 1013.4 |
| 20260904015323 | 85 | 171 | 0.0 | 1.0 | 0.00 | 0.04 | 0.03 | 71 | 1013.4 |
| 20260904014819 | 86 | 171 | 0.0 | 2.0 | 0.00 | 0.04 | 0.03 | 71 | 1013.4 |
| 20260904014313 | 86 | 171 | 0.0 | 2.0 | 0.00 | 0.04 | 0.03 | 70 | 1013.4 |
| 20260904013809 | 86 | 172 | 0.0 | 2.0 | 0.00 | 0.04 | 0.03 | 70 | 1013.3 |
| 20260904013306 | 86 | 173 | 0.0 | 0.0 | 0.00 | 0.04 | 0.03 | 70 | 1013.4 |
| 20260904012803 | 86 | 173 | 0.0 | 0.0 | 0.00 | 0.04 | 0.03 | 70 | 1013.4 |
| 20260904012321 | 86 | 173 | 0.0 | 0.0 | 0.00 | 0.04 | 0.03 | 70 | 1013.3 |
| 20260904011818 | 86 | 173 | 0.0 | 0.0 | 0.00 | 0.04 | 0.03 | 70 | 1013.2 |
| 20260904011315 | 86 | 173 | 0.0 | 0.0 | 0.00 | 0.04 | 0.03 | 70 | 1013.1 |
| 20260904010810 | 86 | 173 | 0.0 | 0.0 | 0.00 | 0.04 | 0.03 | 70 | 1013.2 |
| 20260904010324 | 86 | 173 | 0.0 | 1.0 | 0.00 | 0.04 | 0.03 | 70 | 1013.2 |
| 20260904005819 | 86 | 173 | 0.0 | 2.0 | 0.00 | 0.04 | 0.03 | 70 | 1013.3 |
| 20260904005316 | 87 | 165 | 1.0 | 3.0 | 0.00 | 0.04 | 0.03 | 69 | 1013.3 |
| 20260904004811 | 87 | 157 | 0.0 | 3.0 | 0.00 | 0.04 | 0.03 | 69 | 1013.3 |
| 20260904004328 | 87 | 157 | 1.0 | 3.0 | 0.00 | 0.04 | 0.03 | 69 | 1013.4 |
| 20260904003804 | 87 | 157 | 0.0 | 2.0 | 0.00 | 0.04 | 0.03 | 68 | 1013.3 |
| 20260904003321 | 87 | 157 | 0.0 | 2.0 | 0.00 | 0.04 | 0.03 | 68 | 1013.3 |
| 20260904002834 | 88 | 153 | 0.0 | 2.0 | 0.00 | 0.04 | 0.03 | 67 | 1013.2 |
| 20260904002308 | 88 | 153 | 0.0 | 3.0 | 0.00 | 0.04 | 0.03 | 67 | 1013.2 |
| 20260904001805 | 88 | 153 | 1.0 | 3.0 | 0.00 | 0.04 | 0.03 | 67 | 1013.2 |
| 20260904001320 | 88 | 119 | 0.0 | 3.0 | 0.00 | 0.04 | 0.03 | 66 | 1013.3 |
| 20260904000836 | 88 | 119 | 0.0 | 3.0 | 0.00 | 0.04 | 0.03 | 66 | 1013.2 |
| 20260904000303 | 88 | 119 | 0.0 | 4.0 | 0.00 | 0.04 | 0.03 | 66 | 1013.3 |
| 20260903235820 | 89 | 133 | 2.0 | 4.0 | 0.00 | 0.04 | 0.03 | 65 | 1013.2 |
| 20260903235315 | 89 | 112 | 0.0 | 5.0 | 0.00 | 0.04 | 0.03 | 65 | 1013.2 |
| 20260903234811 | 89 | 113 | 1.0 | 5.0 | 0.00 | 0.04 | 0.03 | 64 | 1013.2 |
| 20260903234307 | 90 | 137 | 1.0 | 3.0 | 0.00 | 0.04 | 0.03 | 64 | 1013.1 |
| 20260903233821 | 90 | 131 | 1.0 | 3.0 | 0.00 | 0.04 | 0.03 | 64 | 1013.1 |
| 20260903233316 | 90 | 130 | 1.0 | 3.0 | 0.00 | 0.04 | 0.03 | 64 | 1013.1 |
| 20260903232814 | 90 | 98 | 1.0 | 4.0 | 0.00 | 0.04 | 0.03 | 64 | 1013.1 |
| 20260903232312 | 90 | 173 | 1.0 | 4.0 | 0.00 | 0.04 | 0.03 | 64 | 1012.9 |
| 20260903231810 | 90 | 211 | 2.0 | 5.0 | 0.00 | 0.05 | 0.03 | 63 | 1012.9 |
| 20260903231305 | 90 | 109 | 2.0 | 6.0 | 0.00 | 0.05 | 0.03 | 62 | 1012.8 |
| 20260903230821 | 90 | 148 | 3.0 | 6.0 | 0.00 | 0.05 | 0.03 | 62 | 1012.7 |
| 20260903230318 | 90 | 180 | 1.0 | 7.0 | 0.00 | 0.05 | 0.03 | 61 | 1012.6 |
| 20260903225806 | 91 | 147 | 2.0 | 7.0 | 0.00 | 0.05 | 0.03 | 60 | 1012.6 |
| 20260903225306 | 91 | 96 | 1.0 | 3.0 | 0.00 | 0.05 | 0.03 | 60 | 1012.6 |
| 20260903224819 | 90 | 98 | 0.0 | 3.0 | 0.00 | 0.05 | 0.03 | 61 | 1012.7 |
| 20260903224317 | 90 | 155 | 1.0 | 3.0 | 0.00 | 0.05 | 0.03 | 60 | 1012.6 |
| 20260903223813 | 90 | 162 | 1.0 | 4.0 | 0.01 | 0.05 | 0.03 | 60 | 1012.5 |
| 20260903223309 | 91 | 155 | 1.0 | 3.0 | 0.01 | 0.05 | 0.03 | 59 | 1012.6 |
| 20260903222805 | 91 | 152 | 2.0 | 6.0 | 0.01 | 0.05 | 0.03 | 59 | 1012.7 |
| 20260903222321 | 91 | 148 | 2.0 | 6.0 | 0.01 | 0.05 | 0.03 | 59 | 1012.7 |
| 20260903221817 | 91 | 74 | 1.0 | 5.0 | 0.01 | 0.05 | 0.03 | 58 | 1012.7 |
| 20260903221307 | 91 | 161 | 2.0 | 7.0 | 0.01 | 0.05 | 0.03 | 57 | 1012.7 |
| 20260903220823 | 91 | 83 | 3.0 | 7.0 | 0.01 | 0.05 | 0.03 | 57 | 1012.8 |
| 20260903220320 | 92 | 82 | 1.0 | 4.0 | 0.01 | 0.05 | 0.03 | 57 | 1012.8 |
| 20260903215816 | 92 | 155 | 2.0 | 4.0 | 0.01 | 0.05 | 0.03 | 57 | 1012.9 |
| 20260903215310 | 91 | 96 | 0.0 | 5.0 | 0.01 | 0.05 | 0.03 | 59 | 1012.9 |
| 20260903214805 | 91 | 57 | 3.0 | 8.0 | 0.01 | 0.05 | 0.03 | 58 | 1013.0 |
| 20260903214302 | 91 | 77 | 2.0 | 8.0 | 0.01 | 0.05 | 0.03 | 60 | 1012.9 |
| 20260903213818 | 90 | 157 | 0.0 | 3.0 | 0.00 | 0.04 | 0.02 | 62 | 1013.0 |
| 20260903213314 | 90 | 157 | 0.0 | 3.0 | 0.00 | 0.04 | 0.02 | 62 | 1013.1 |
| 20260903212831 | 90 | 181 | 1.0 | 3.0 | 0.00 | 0.04 | 0.02 | 63 | 1013.1 |
| 20260903212323 | 90 | 171 | 1.0 | 3.0 | 0.00 | 0.04 | 0.02 | 64 | 1013.1 |
| 20260903211816 | 90 | 250 | 0.0 | 5.0 | 0.00 | 0.04 | 0.02 | 65 | 1013.0 |
| 20260903211311 | 90 | 232 | 1.0 | 5.0 | 0.00 | 0.04 | 0.02 | 64 | 1013.0 |
| 20260903210827 | 90 | 206 | 0.0 | 7.0 | 0.00 | 0.04 | 0.02 | 64 | 1013.1 |
| 20260903210303 | 90 | 231 | 2.0 | 7.0 | 0.00 | 0.04 | 0.02 | 62 | 1013.2 |
| 20260903205818 | 91 | 208 | 3.0 | 7.0 | 0.00 | 0.04 | 0.02 | 61 | 1013.2 |
| 20260903205334 | 92 | 157 | 1.0 | 4.0 | 0.00 | 0.04 | 0.02 | 57 | 1013.1 |
| 20260903204309 | 92 | 146 | 2.0 | 3.0 | 0.00 | 0.04 | 0.02 | 57 | 1013.2 |
| 20260903203805 | 92 | 95 | 1.0 | 3.0 | 0.00 | 0.04 | 0.02 | 57 | 1013.2 |
| 20260903203321 | 92 | 217 | 0.0 | 3.0 | 0.00 | 0.04 | 0.02 | 60 | 1013.2 |
| 20260903202817 | 92 | 218 | 0.0 | 5.0 | 0.00 | 0.04 | 0.02 | 59 | 1013.1 |
| 20260903202314 | 93 | 192 | 2.0 | 7.0 | 0.00 | 0.04 | 0.02 | 58 | 1013.1 |
| 20260903201811 | 94 | 119 | 3.0 | 7.0 | 0.00 | 0.04 | 0.02 | 55 | 1013.2 |
| 20260903201308 | 94 | 101 | 1.0 | 5.0 | 0.00 | 0.04 | 0.02 | 49 | 1013.3 |
| 20260903200825 | 95 | 82 | 0.0 | 4.0 | 0.00 | 0.04 | 0.02 | 51 | 1013.3 |
| 20260903200340 | 95 | 82 | 1.0 | 5.0 | 0.00 | 0.04 | 0.02 | 51 | 1013.5 |
| 20260903195815 | 95 | 79 | 0.0 | 4.0 | 0.00 | 0.04 | 0.02 | 51 | 1013.4 |
| 20260903195311 | 96 | 79 | 1.0 | 4.0 | 0.00 | 0.04 | 0.02 | 52 | 1013.4 |
| 20260903194805 | 96 | 193 | 1.0 | 6.0 | 0.00 | 0.04 | 0.02 | 51 | 1013.4 |
| 20260903194347 | 96 | 123 | 1.0 | 6.0 | 0.00 | 0.04 | 0.02 | 51 | 1013.4 |
| 20260903193821 | 95 | 134 | 1.0 | 3.0 | 0.00 | 0.04 | 0.02 | 53 | 1013.4 |
| 20260903193318 | 95 | 173 | 0.0 | 5.0 | 0.00 | 0.04 | 0.02 | 54 | 1013.5 |
| 20260903192814 | 94 | 153 | 0.0 | 7.0 | 0.00 | 0.04 | 0.02 | 54 | 1013.6 |
| 20260903192330 | 94 | 113 | 1.0 | 7.0 | 0.00 | 0.04 | 0.02 | 56 | 1013.7 |
| 20260903191825 | 95 | 90 | 2.0 | 7.0 | 0.00 | 0.04 | 0.02 | 55 | 1013.7 |
| 20260903191322 | 95 | 71 | 2.0 | 7.0 | 0.00 | 0.04 | 0.02 | 54 | 1013.8 |
| 20260903190314 | 94 | 85 | 1.0 | 7.0 | 0.00 | 0.04 | 0.02 | 56 | 1014.0 |
| 20260903185808 | 93 | 76 | 2.0 | 8.0 | 0.00 | 0.04 | 0.02 | 54 | 1014.1 |
| 20260903185306 | 92 | 168 | 2.0 | 8.0 | 0.00 | 0.04 | 0.02 | 57 | 1014.1 |
| 20260903184842 | 91 | 151 | 2.0 | 7.0 | 0.00 | 0.04 | 0.02 | 61 | 1014.2 |
| 20260903184336 | 91 | 49 | 1.0 | 5.0 | 0.00 | 0.04 | 0.02 | 65 | 1014.2 |
| 20260903183831 | 91 | 16 | 1.0 | 5.0 | 0.00 | 0.04 | 0.02 | 65 | 1014.3 |
| 20260903183306 | 91 | 24 | 1.0 | 5.0 | 0.00 | 0.04 | 0.02 | 64 | 1014.4 |
| 20260903182821 | 92 | 336 | 1.0 | 5.0 | 0.00 | 0.04 | 0.02 | 63 | 1014.4 |
| 20260903182315 | 93 | 85 | 1.0 | 5.0 | 0.00 | 0.04 | 0.02 | 62 | 1014.5 |
| 20260903181812 | 93 | 28 | 2.0 | 6.0 | 0.00 | 0.05 | 0.02 | 63 | 1014.5 |
| 20260903181309 | 93 | 19 | 1.0 | 6.0 | 0.00 | 0.05 | 0.02 | 62 | 1014.5 |
| 20260903180806 | 93 | 12 | 1.0 | 4.0 | 0.00 | 0.05 | 0.02 | 63 | 1014.6 |
| 20260903180303 | 92 | 40 | 1.0 | 7.0 | 0.00 | 0.05 | 0.02 | 63 | 1014.6 |
| 20260903175820 | 92 | 350 | 1.0 | 7.0 | 0.00 | 0.05 | 0.02 | 63 | 1014.5 |
| 20260903175317 | 93 | 57 | 1.0 | 5.0 | 0.00 | 0.05 | 0.02 | 63 | 1014.7 |
| 20260903174812 | 93 | 334 | 2.0 | 5.0 | 0.00 | 0.05 | 0.02 | 62 | 1014.8 |
| 20260903174328 | 93 | 58 | 1.0 | 5.0 | 0.00 | 0.05 | 0.02 | 62 | 1014.8 |
| 20260903173820 | 93 | 360 | 1.0 | 6.0 | 0.00 | 0.05 | 0.02 | 63 | 1014.9 |
| 20260903173313 | 92 | 351 | 1.0 | 6.0 | 0.00 | 0.05 | 0.02 | 64 | 1015.0 |
| 20260903172819 | 92 | 32 | 1.0 | 9.0 | 0.00 | 0.05 | 0.02 | 64 | 1015.1 |
| 20260903171810 | 92 | 19 | 0.0 | 7.0 | 0.00 | 0.05 | 0.02 | 64 | 1015.2 |
| 20260903171311 | 91 | 344 | 2.0 | 7.0 | 0.00 | 0.05 | 0.02 | 64 | 1015.3 |
| 20260903170811 | 92 | 338 | 3.0 | 9.0 | 0.00 | 0.05 | 0.02 | 64 | 1015.4 |
| 20260903170307 | 92 | 53 | 1.0 | 9.0 | 0.00 | 0.05 | 0.02 | 63 | 1015.4 |
| 20260903165816 | 91 | 46 | 1.0 | 8.0 | 0.00 | 0.05 | 0.02 | 64 | 1015.4 |
| 20260903165306 | 91 | 49 | 1.0 | 8.0 | 0.00 | 0.05 | 0.02 | 65 | 1015.5 |
| 20260903164834 | 91 | 337 | 3.0 | 8.0 | 0.00 | 0.05 | 0.02 | 64 | 1015.6 |
| 20260903164342 | 91 | 113 | 2.0 | 8.0 | 0.00 | 0.05 | 0.02 | 65 | 1015.6 |
| 20260903163329 | 91 | 40 | 1.0 | 6.0 | 0.01 | 0.05 | 0.02 | 66 | 1015.7 |
| 20260903162837 | 91 | 19 | 1.0 | 6.0 | 0.01 | 0.05 | 0.02 | 65 | 1015.7 |